Home   Weather   Chevak   Past weeks
Flag for USA

Past Weather in Chevak, Alaska, USA — Yesterday and Last 2 Weeks

Now
59 °F

Overcast.


Feels Like: 57 °F
Forecast: 58 / 54 °F
Wind: 9 mph from East

Location: Hooper Bay Weather Reporting System

Current Time: Jul 22, 2019 at 6:54:32 pm

Latest Report: Jul 22, 2019 at 4:56 pm


Visibility: 10 mi

Pressure: 30.12 "Hg

Humidity: 84%

Dew Point: 54 °F

Location of ChevakLocation

Past Weather in Chevak — Graph

°F

Chevak Temperature Yesterday

Maximum temperature yesterday: 54 °F (at 12:56 pm)
Minimum temperature yesterday: 52 °F (at 5:27 am)
Average temperature yesterday: 53 °F

High & Low Weather Summary for the Past Weeks

 TemperatureHumidityPressure
High77 °F (Jul 8, 4:56 pm)100% (Jul 12, 6:23 am)30.29 "Hg (Jul 12, 6:23 am)
Low50 °F (Jul 20, 1:56 am)52% (Jul 8, 4:56 pm)29.59 "Hg (Jul 15, 8:04 pm)
Average57 °F90%29.97 "Hg
* Reported Jul 7 4:56 pm — Jul 22 4:56 pm, Chevak. Weather by CustomWeather, © 2019

Note: Actual official high and low records may vary slightly from our data, if they occured in-between our weather recording intervals... More about our weather records

Advertising

Chevak Weather History for the Previous 24 Hours

Scroll right to see more
 ConditionsComfort  
Time TempWeatherWind HumidityBarometerVisibility
4:56 pm
Mon, Jul 22
59 °FOvercast.9 mph84%30.12 "Hg10 mi
3:56 pm60 °FOvercast.10 mph78%30.12 "Hg10 mi
3:38 pm61 °FMostly cloudy.10 mph72%30.02 "Hg10 mi
3:19 pm61 °FMore clouds than sun.10 mph72%30.04 "Hg10 mi
2:56 pm58 °FOvercast.7 mph78%30.14 "Hg10 mi
2:39 pm57 °FMostly cloudy.6 mph77%30.04 "Hg10 mi
1:56 pm57 °FOvercast.7 mph69%30.20 "Hg10 mi
1:13 pm57 °FOvercast.6 mph72%30.09 "Hg10 mi
12:56 pm58 °FOvercast.5 mph70%30.25 "Hg10 mi
11:04 am55 °FOvercast.3 mph77%30.10 "Hg10 mi
10:56 am55 °FPartly sunny.6 mph80%30.19 "Hg10 mi
9:56 am54 °FPassing clouds.6 mph83%30.24 "Hg10 mi
8:56 am54 °FScattered clouds.6 mph83%30.24 "Hg10 mi
7:46 am52 °FPartly sunny.6 mph88%30.14 "Hg10 mi
6:56 am52 °FScattered clouds.7 mph86%30.22 "Hg10 mi
6:10 am52 °FMostly cloudy.8 mph88%30.11 "Hg10 mi
5:17 am52 °FOvercast.12 mph88%30.11 "Hg10 mi
4:56 am52 °FLow clouds.9 mph89%30.22 "Hg10 mi
3:56 am52 °FOvercast.10 mph89%30.23 "Hg10 mi
3:16 am54 °FMostly cloudy.14 mph82%30.12 "Hg10 mi
2:18 am54 °FMostly cloudy.15 mph88%30.12 "Hg10 mi
1:56 am54 °FOvercast.14 mph83%30.24 "Hg10 mi
12:56 am53 °FMore clouds than sun.10 mph93%30.24 "Hg10 mi
12:16 am54 °FOvercast.9 mph94%30.13 "Hg10 mi
11:56 pm
Sun, Jul 21
54 °FMostly cloudy.10 mph90%30.24 "Hg10 mi
10:56 pm54 °FLow clouds.9 mph90%30.24 "Hg10 mi
8:56 pm54 °FLow clouds.8 mph90%30.25 "Hg10 mi
Weather by CustomWeather, © 2019

See weather overview